Location: ??
(35.5090°N, 139.6783°E)
Time: 19:18:46
(UTC+00:00)

Helios 1A Rocket - Pass Details

Date: 08 November 2025
Orbit: 439 x 452 km, 98.3° (Epoch: 08 December)

Event Time Altitude Azimuth Distance (km) Brightness Sun altitude
Exits shadow 09:02:42 - 6° (N) 2,025 5.6 -17.1°
Reaches altitude 10° 09:03:48 10° 3° (N) 1,561 5.0 -17.3°
Maximum altitude 09:07:04 55° 285° (WNW) 537 3.0 -18.0°
Drops below altitude 10° 09:10:20 10° 207° (SSW) 1,557 5.6 -18.7°
Sets 09:12:22 0° 202° (SSW) 2,426 6.5 -19.1°
